パンスターズ彗星

C/2016 A1 ( PanSTARRS )

English version
Home page
Updated on July 7, 2017

---------------------------------------------------------------------

・ プロフィール

発見日 2016年1月1日
発見光度 19.3等
発見者 Pan-STARRS 1 telescope (Haleakala)

・ 写真集

・ 軌道要素

Epoch 2017 Nov. 23.0 TT = JDT 2458080.5
T 2017 Nov. 23.36305 TT                                 MPCW
q   5.3278223            (2000.0)            P               Q
z  -0.0003800      Peri.   10.31920     -0.53514310     +0.51119934
 +/-0.0000016      Node   128.17455     +0.70123597     -0.17511136
e   1.0020247      Incl.  121.18570     +0.47105199     +0.84143404
From 539 observations 2016 Jan. 1-2017 Mar. 6, mean residual 0".5.

・ 星図

・ 光度変化

        m1 = 5.5 + 5 logΔ + 10.0 log r

---------------------------------------------------------------------

軌道要素はM.P.E.C. 2017-E59に掲載されたものです。
星図はステラナビゲータ Ver.10 (アストロアーツ) で作成したものです。
光度グラフはComet for Windowsで作成したものです。

---------------------------------------------------------------------

Copyright(C) Seiichi Yoshida (comet@aerith.net). All rights reserved.